Stations météo

réclame
Mon MeteoGroup
Figari, France (7780): Température de l'air & dewpoint: 19.09.2018 09:00:00 - 25.09.2018 09:00:00 (CEST)Figari, France (7780): Température de l'air 5cm: 19.09.2018 09:00:00 - 25.09.2018 09:00:00 (CEST)Figari, France (7780): Vitesse du vent & gusts: 19.09.2018 09:00:00 - 25.09.2018 09:00:00 (CEST)Figari, France (7780): Direction du vent: 19.09.2018 09:00:00 - 25.09.2018 09:00:00 (CEST)Figari, France (7780): reduced air pressure: 19.09.2018 09:00:00 - 25.09.2018 09:00:00 (CEST)Figari, France (7780): visibility: 19.09.2018 09:00:00 - 25.09.2018 09:00:00 (CEST)Figari, France (7780): Quantités de précipitations: 19.09.2018 09:00:00 - 25.09.2018 09:00:00 (CEST)
Date & Time tt [°C] td [°C] tt 5cm [°C] ff [km/h] ff [knt] fx [km/h] fx [knt] dd ppp [hPa] vv [km] rr [mm]
25.09.2018 09:00:00 21,5 10,9 15,0 36 19 81 44 ENE 1022,5 39 0,0
25.09.2018 08:00:00 20,9 10,4 14,8 36 20 70 38 ENE 1021,7 55 0,0
25.09.2018 07:00:00 21,5 9,4 15,4 35 19 64 35 ENE 1020,3 60 0,0
25.09.2018 06:00:00 21,9 10,1 15,8 30 16 66 36 ENE 1020,2 60 0,0
25.09.2018 05:00:00 22,2 10,7 13,3 29 16 53 29 ENE 1020,0 59 0,0
25.09.2018 04:00:00 20,6 11,2 12,0 6 3 15 8 W 1019,9 60 0,0
25.09.2018 03:00:00 20,7 12,7 12,5 9 5 26 14 N 1019,7 60 0,0
25.09.2018 02:00:00 20,4 14,3 10,1 12 6 24 13 NE 1019,7 60 0,0
25.09.2018 01:00:00 18,5 15,9 11,0 6 3 14 8 N 1019,6 39 0,0
25.09.2018 00:00:00 19,2 16,8 12,4 5 3 11 6 NNE 1019,3 34 0,0
24.09.2018 23:00:00 19,7 17,8 12,6 7 4 19 10 WNW 1018,8 23 0,0
24.09.2018 22:00:00 19,3 16,1 10,3 7 4 13 7 S 1018,2 34 0,0
24.09.2018 21:00:00 19,3 15,6 10,9 6 3 18 10 SSW 1017,7 32 0,0
24.09.2018 20:00:00 21,4 16,1 14,7 13 7 22 12 SW 1016,7 35 0,0
24.09.2018 19:00:00 22,6 16,4 16,7 16 9 29 16 SW 1016,1 38 0,0
24.09.2018 18:00:00 23,5 16,3 18,1 20 11 42 23 SW 1015,7 35 0,0
24.09.2018 17:00:00 25,6 16,7 21,8 24 13 39 21 SW 1015,1 40 0,0
24.09.2018 16:00:00 26,8 16,4 26,8 24 13 46 25 SW 1014,9 40 0,0
24.09.2018 15:00:00 28,0 14,6 28,5 29 16 49 26 SW 1014,9 44 0,0
24.09.2018 14:00:00 28,8 14,2 28,9 25 14 49 26 WSW 1015,0 49 0,0
24.09.2018 13:00:00 28,5 14,7 29,2 23 12 49 27 WNW 1014,5 39 0,0
24.09.2018 12:00:00 28,6 14,4 28,5 22 12 63 34 W 1014,4 42 0,0
24.09.2018 11:00:00 28,7 16,3 28,0 21 11 52 28 WNW 1014,4 43 0,0
24.09.2018 10:00:00 27,9 17,4 24,3 19 10 46 25 W 1014,1 36 0,0
24.09.2018 09:00:00 26,3 19,4 19,9 19 10 39 21 SW 1013,5 31 0,0
24.09.2018 08:00:00 24,0 20,1 16,8 24 13 40 21 SSW 1013,1 23 0,0
24.09.2018 07:00:00 23,4 19,8 17,1 23 13 42 23 SW 1013,3 31 0,0
24.09.2018 06:00:00 23,6 19,9 17,2 24 13 37 20 SW 1013,6 30 0,0
24.09.2018 05:00:00 23,4 19,8 17,1 19 11 37 20 WSW 1014,0 37 0,0
24.09.2018 04:00:00 23,8 19,3 16,2 20 11 40 22 W 1014,7 49 0,0
24.09.2018 03:00:00 22,3 18,9 15,9 23 12 37 20 SW 1015,5 32 0,0
24.09.2018 02:00:00 22,3 19,7 16,0 21 11 37 20 WSW 1016,5 24 0,0
24.09.2018 01:00:00 22,5 19,5 16,1 23 12 39 21 WSW 1016,7 25 0,0
24.09.2018 00:00:00 22,4 19,6 16,1 19 11 33 18 WSW 1017,2 27 0,0
23.09.2018 23:00:00 22,7 19,5 16,3 20 11 34 19 SW 1017,4 28 0,0
23.09.2018 22:00:00 23,0 19,6 16,3 22 12 33 18 WSW 1017,4 31 0,0
23.09.2018 21:00:00 22,9 19,5 16,5 20 11 33 18 SW 1017,5 35 0,0
23.09.2018 20:00:00 23,1 19,5 16,7 21 12 33 18 WSW 1017,2 43 0,0
23.09.2018 19:00:00 24,4 19,7 18,1 23 12 35 19 SW 1017,4 44 0,0
23.09.2018 18:00:00 26,7 18,3 21,3 23 12 34 19 SW 1017,4 48 0,0
23.09.2018 17:00:00 28,7 15,9 24,4 23 12 32 17 SW 1017,7 48 0,0
23.09.2018 16:00:00 29,8 16,2 30,3 16 9 32 17 SW 1017,9 39 0,0
23.09.2018 15:00:00 29,9 14,4 31,2 16 9 31 17 W 1018,4 27 0,0
23.09.2018 14:00:00 29,5 17,3 30,9 16 9 28 15 W 1018,8 24 0,0
23.09.2018 13:00:00 28,7 18,5 30,5 16 8 32 17 SSW 1019,7 33 0,0
23.09.2018 12:00:00 27,6 19,1 22,4 13 7 23 12 SW 1019,8 41 0,0
23.09.2018 11:00:00 25,5 19,6 21,8 11 6 20 11 SSW 1019,9 40 0,0
23.09.2018 10:00:00 25,8 19,7 23,1 11 6 18 10 SSW 1019,5 38 0,0
23.09.2018 09:00:00 20,2 15,8 13,2 2 1 6 3 NNE 1019,2 57 0,0
23.09.2018 08:00:00 17,3 14,0 8,7 3 1 6 3 NNE 1018,9 60 0,0
23.09.2018 07:00:00 14,9 12,4 7,7 0 0 9 5 N 1018,6 57 0,0
23.09.2018 06:00:00 15,1 12,0 7,6 6 3 12 7 NE 1018,6 59 0,0
23.09.2018 05:00:00 15,1 12,0 7,8 6 3 16 8 NE 1018,6 58 0,0
23.09.2018 04:00:00 18,4 12,8 9,1 13 7 29 16 SW 1018,5 58 0,0
23.09.2018 03:00:00 20,4 15,0 13,8 23 13 32 17 SW 1018,5 52 0,0
23.09.2018 02:00:00 20,8 15,3 14,4 20 11 36 19 W 1019,0 49 0,0
23.09.2018 01:00:00 20,7 15,3 14,0 19 11 32 17 WSW 1019,2 46 0,0
23.09.2018 00:00:00 21,2 15,1 14,6 19 10 30 16 SW 1019,4 47 0,0
22.09.2018 23:00:00 21,2 14,8 14,8 22 12 37 20 WSW 1019,3 46 0,0
22.09.2018 22:00:00 21,3 14,7 15,0 23 12 38 21 WSW 1019,3 49 0,0
22.09.2018 21:00:00 21,7 14,8 15,3 24 13 44 24 WSW 1018,7 48 0,0
22.09.2018 20:00:00 22,0 14,9 15,8 27 14 45 24 WSW 1017,9 47 0,0
22.09.2018 19:00:00 23,3 14,6 17,2 24 13 45 24 WSW 1017,7 46 0,0
22.09.2018 18:00:00 25,4 14,8 20,3 28 15 46 25 WSW 1017,7 40 0,0
22.09.2018 17:00:00 26,8 15,2 22,4 29 16 45 24 WSW 1017,4 35 0,0
22.09.2018 16:00:00 28,1 15,4 27,1 29 16 49 27 WSW 1017,5 39 0,0
22.09.2018 15:00:00 29,5 15,2 29,3 27 15 44 24 WSW 1017,2 44 0,0
22.09.2018 14:00:00 29,9 17,7 28,4 26 14 45 24 WSW 1017,4 49 0,0
22.09.2018 13:00:00 29,4 19,7 28,8 31 17 50 27 WSW 1017,2 53 0,0
22.09.2018 12:00:00 28,9 20,1 28,8 29 16 42 23 SW 1017,2 60 0,0
22.09.2018 11:00:00 28,3 20,1 28,6 22 12 34 19 SW 1017,4 24 0,0
22.09.2018 10:00:00 27,1 20,4 22,7 15 8 27 15 WSW 1017,5 30 0,0
22.09.2018 09:00:00 25,2 20,5 18,5 16 8 24 13 W 1017,4 31 0,0
22.09.2018 08:00:00 22,1 19,6 13,3 11 6 19 10 WSW 1016,9 22 0,0
22.09.2018 07:00:00 21,7 18,9 12,9 10 5 22 12 W 1016,6 26 0,0
22.09.2018 06:00:00 19,8 17,6 5,5 17 9 22 12 W 1016,7 33 0,2
22.09.2018 05:00:00 13,3 12,2 5,3 12 6 16 9 SW 1016,8 12 0,0
22.09.2018 04:00:00 14,0 13,0 6,2 3 1 6 3 W 1016,5 7 0,0
22.09.2018 03:00:00 15,1 14,0 7,1 2 1 9 5 SSE 1016,7 8 0,0
22.09.2018 02:00:00 16,5 15,4 8,4 4 2 12 7 NNE 1016,9 9 0,0
22.09.2018 01:00:00 17,8 17,0 8,0 4 2 23 13 SE 1017,0 13 0,0
22.09.2018 00:00:00 17,0 15,9 8,4 2 1 6 4 ENE 1017,2 13 0,0
21.09.2018 23:00:00 18,1 16,6 9,8 4 2 8 4 NNE 1017,1 14 0,0
21.09.2018 22:00:00 19,8 18,1 11,0 6 4 11 6 N 1016,9 18 0,0
21.09.2018 21:00:00 20,0 18,0 11,4 4 2 9 5 E 1016,6 25 0,0
21.09.2018 20:00:00 22,9 19,7 13,4 5 3 13 7 SSW 1015,9 31 0,0
21.09.2018 19:00:00 25,9 19,5 19,3 7 4 15 8 S 1015,3 48 0,0
21.09.2018 18:00:00 27,4 18,9 22,7 10 5 23 12 SSW 1015,4 50 0,0
21.09.2018 17:00:00 27,3 18,3 22,3 16 8 31 17 SW 1015,7 55 0,0
21.09.2018 16:00:00 27,8 17,9 23,4 19 10 29 16 SW 1015,7 54 0,0
21.09.2018 15:00:00 28,5 18,0 22,8 10 6 23 13 NE 1015,4 51 0,0
21.09.2018 14:00:00 27,3 18,3 22,9 12 7 27 15 SW 1015,9 49 0,0
21.09.2018 13:00:00 29,5 18,0 26,1 16 9 29 15 SSW 1015,9 48 0,0
21.09.2018 12:00:00 30,3 18,4 31,8 7 4 23 12 E 1016,0 60 0,0
21.09.2018 11:00:00 28,5 17,1 28,3 8 5 22 12 NE 1015,9 43 0,0
21.09.2018 10:00:00 27,2 16,8 25,4 10 5 18 10 NE 1015,5 54 0,0
21.09.2018 09:00:00 23,0 17,0 15,2 0 0 9 5 N 1015,4 52 0,0
21.09.2018 08:00:00 17,3 15,6 8,1 3 2 12 6 N 1015,5 36 0,0
21.09.2018 07:00:00 16,5 14,9 8,0 5 3 9 5 NNW 1014,7 48 0,0
21.09.2018 06:00:00 16,1 14,6 7,5 9 5 10 6 NNE 1014,9 46 0,0
21.09.2018 05:00:00 15,1 13,8 7,5 4 2 6 3 N 1015,1 32 0,0
21.09.2018 04:00:00 15,4 13,9 7,8 3 2 9 5 SE 1015,1 41 0,0
21.09.2018 03:00:00 16,2 14,4 8,4 5 3 8 4 NE 1015,3 40 0,0
21.09.2018 02:00:00 16,4 14,8 8,6 5 3 9 5 NNE 1015,4 41 0,0
21.09.2018 01:00:00 17,3 15,1 8,8 6 4 15 8 NNE 1015,7 59 0,0
21.09.2018 00:00:00 16,5 14,7 8,8 8 4 11 6 ENE 1016,2 51 0,0
20.09.2018 23:00:00 17,6 14,9 9,1 2 1 8 4 NNW 1016,0 55 0,0
20.09.2018 22:00:00 19,6 16,2 10,4 5 3 12 6 NNW 1016,3 60 0,0
20.09.2018 21:00:00 20,9 16,5 11,4 5 3 13 7 NNE 1016,1 56 0,0
20.09.2018 20:00:00 22,8 17,7 14,7 5 3 26 14 NNW 1015,7 57 0,0
20.09.2018 19:00:00 25,4 18,3 19,1 15 8 39 21 ENE 1015,3 50 0,0
20.09.2018 18:00:00 26,8 18,1 21,7 19 10 42 23 ENE 1015,4 56 0,0
20.09.2018 17:00:00 27,8 17,9 23,1 19 11 41 22 ENE 1015,6 60 0,0
20.09.2018 16:00:00 28,9 17,1 22,0 22 12 46 25 ENE 1015,5 60 0,0
20.09.2018 15:00:00 26,9 16,5 22,0 23 12 55 30 ENE 1016,0 47 0,0
20.09.2018 14:00:00 28,3 18,1 25,7 22 12 50 27 ENE 1016,4 35 0,0
20.09.2018 13:00:00 27,9 19,1 27,8 23 12 43 23 ENE 1016,7 44 0,0
20.09.2018 12:00:00 27,6 19,1 24,3 16 9 39 21 ENE 1017,0 45 0,0
20.09.2018 11:00:00 27,1 18,9 26,9 5 3 14 7 N 1017,3 51 0,0
20.09.2018 10:00:00 24,7 18,6 20,6 3 1 9 5 SW 1017,6 57 0,0
20.09.2018 09:00:00 20,0 19,0 11,2 4 2 9 5 NW 1017,4 42 0,0
20.09.2018 08:00:00 16,1 15,5 7,5 3 2 8 5 NNW 1017,2 19 0,0
20.09.2018 07:00:00 14,8 14,0 7,6 4 2 8 4 N 1017,2 14 0,0
20.09.2018 06:00:00 15,0 14,2 7,9 3 2 8 4 N 1017,3 15 0,0
20.09.2018 05:00:00 15,4 14,6 8,4 5 3 7 4 NNE 1017,5 12 0,0
20.09.2018 04:00:00 15,4 14,6 7,9 3 2 8 5 W 1017,7 13 0,0
20.09.2018 03:00:00 15,5 14,7 7,9 2 1 4 2 NE 1018,0 18 0,0
20.09.2018 02:00:00 15,8 14,7 9,0 4 2 8 4 N 1018,3 16 0,0
20.09.2018 01:00:00 16,9 16,1 9,4 5 3 8 4 NNE 1018,7 16 0,0
20.09.2018 00:00:00 17,2 16,4 9,4 3 2 7 4 SE 1018,9 24 0,0
19.09.2018 23:00:00 17,5 16,0 9,8 5 3 8 5 NNE 1019,0 25 0,0
19.09.2018 22:00:00 18,2 16,7 10,4 6 3 9 5 NNW 1018,8 39 0,0
19.09.2018 21:00:00 19,5 17,3 11,4 3 2 8 4 NE 1018,5 41 0,0
19.09.2018 20:00:00 22,1 19,3 14,8 7 4 10 5 NE 1018,1 56 0,0
19.09.2018 19:00:00 23,9 19,6 18,7 6 3 13 7 NNE 1018,1 60 0,0
19.09.2018 18:00:00 24,0 19,5 19,0 7 4 19 10 NE 1018,2 60 0,0
19.09.2018 17:00:00 24,6 19,9 19,8 11 6 27 15 ENE 1018,1 60 0,0
19.09.2018 16:00:00 25,4 20,0 20,9 14 7 37 20 ENE 1017,6 60 0,0
19.09.2018 15:00:00 27,0 19,6 22,8 15 8 31 17 NE 1017,5 53 0,0
19.09.2018 14:00:00 26,8 19,7 24,0 19 10 34 19 E 1017,9 49 0,0
19.09.2018 13:00:00 26,9 19,3 24,6 12 7 33 18 ENE 1018,3 60 0,0
19.09.2018 12:00:00 26,0 19,4 20,9 15 8 30 16 NE 1018,5 55 0,0
19.09.2018 11:00:00 24,3 19,8 19,2 13 7 24 13 E 1018,7 59 0,0
19.09.2018 10:00:00 23,7 20,6 17,2 13 7 24 13 ENE 1018,2 59 0,0
19.09.2018 09:00:00 21,0 19,5 15,0 5 3 37 20 ESE 1017,9 51 0,8

tt = Température de l'air
td = dewpoint
tt 5cm = Température de l'air 5cm
ff = Vitesse du vent
fx = gusts
dd = Direction du vent
ppp = reduced air pressure
vv = visibility
rr = Quantités de précipitations

stations d'obs. à proximité